Date String (YYYY-MM-DD hh:mm:ss) UTC,Instrument flags,Ambient pressure (hPa),Sample flow (lpm),Bypass flow (lpm),Sample temperature (°C),Ambient temperature (°C),ASC tube jacket temperature (°C),LED temperature (°C),Box temperature (°C),Sample RH (%),Span deviation,Mass concentration (μg/m³),Mass concentration (μg/m³),Mass concentration (μg/m³)
DateTimeUTC,F1_M11,P_M11,Q1_M11,Q2_M11,T1_M11,T2_M11,T3_M11,T4_M11,T5_M11,U1_M11,ZSPAN_M11,X0_M11,X2_M11,X1_M11
2023-04-12 20:00:00,,0822.7,5.00,0.00,29.9,27.8,00.0,38.4,31.4,08.2,0000.0,0011.62,0003.32,0002.24
2023-04-12 20:01:00,,0822.8,4.99,0.00,30.0,28.0,00.0,38.4,31.4,08.3,0000.0,0011.34,0003.34,0002.24
2023-04-12 20:02:00,,0822.6,5.00,0.00,30.0,28.2,00.0,38.4,31.5,08.2,0000.0,0011.49,0003.33,0002.24
2023-04-12 20:03:00,,0822.7,5.00,0.00,30.0,28.3,00.0,38.4,31.5,08.1,0000.0,0011.23,0003.32,0002.23
2023-04-12 20:04:00,,0822.6,5.00,0.00,30.0,28.4,00.0,38.4,31.6,08.1,0000.0,0010.91,0003.33,0002.23
2023-04-12 20:05:00,,0822.4,5.00,0.00,30.0,28.5,00.0,38.4,31.6,08.2,0000.0,0010.54,0003.32,0002.24
2023-04-12 20:06:00,,0822.6,5.00,0.00,30.1,28.6,00.0,38.4,31.7,08.3,0000.0,0010.12,0003.29,0002.22
2023-04-12 20:07:00,,0822.4,5.01,0.00,30.1,28.7,00.0,38.4,31.7,08.4,0000.0,0010.19,0003.29,0002.21
2023-04-12 20:08:00,,0822.4,5.00,0.00,30.1,28.8,00.0,38.4,31.8,08.5,0000.0,0010.00,0003.36,0002.24
2023-04-12 20:09:00,,0822.4,5.00,0.00,30.2,28.9,00.0,38.5,31.8,08.6,0000.0,0009.62,0003.36,0002.26
2023-04-12 20:10:00,,0822.4,5.00,0.00,30.2,28.9,00.0,38.5,31.8,08.6,0000.0,0010.22,0003.34,0002.27
2023-04-12 20:11:00,,0822.4,4.99,0.00,30.2,29.0,00.0,38.5,31.9,08.2,0000.0,0010.51,0003.36,0002.28
2023-04-12 20:12:00,,0822.4,4.99,0.00,30.3,29.0,00.0,38.5,31.9,08.2,0000.0,0011.10,0003.36,0002.29
2023-04-12 20:13:00,,0822.4,4.99,0.00,30.3,28.0,00.0,38.5,31.8,08.3,0000.0,0010.56,0003.35,0002.28
2023-04-12 20:14:00,,0822.4,5.00,0.00,30.2,26.3,00.0,38.4,31.4,08.1,0000.0,0010.85,0003.38,0002.29
2023-04-12 20:15:00,,0822.3,5.00,0.00,30.1,25.9,00.0,38.3,31.3,08.1,0000.0,0011.11,0003.38,0002.30
2023-04-12 20:16:00,,0822.3,5.01,0.00,30.0,26.1,00.0,38.3,31.2,08.0,0000.0,0011.73,0003.37,0002.31
2023-04-12 20:17:00,,0822.3,5.00,0.00,29.9,26.4,00.0,38.3,31.2,08.1,0000.0,0012.72,0003.39,0002.33
2023-04-12 20:18:00,,0822.3,4.99,0.00,29.9,26.7,00.0,38.3,31.2,08.2,0000.0,0013.03,0003.37,0002.32
2023-04-12 20:19:00,,0822.3,5.00,0.00,29.9,27.1,00.0,38.3,31.2,08.2,0000.0,0013.49,0003.32,0002.29
2023-04-12 20:20:00,,0822.3,5.01,0.00,29.9,27.4,00.0,38.3,31.3,08.3,0000.0,0013.34,0003.35,0002.27
2023-04-12 20:21:00,,0822.3,5.01,0.00,29.9,27.7,00.0,38.3,31.3,08.3,0000.0,0012.63,0003.36,0002.26
2023-04-12 20:22:00,,0822.3,5.00,0.00,29.9,27.9,00.0,38.3,31.4,08.3,0000.0,0012.33,0003.35,0002.26
2023-04-12 20:23:00,,0822.2,5.00,0.00,29.9,28.1,00.0,38.3,31.4,08.5,0000.0,0012.09,0003.33,0002.27
2023-04-12 20:24:00,,0822.2,5.01,0.00,30.0,28.2,00.0,38.3,31.5,08.6,0000.0,0012.33,0003.36,0002.31
2023-04-12 20:25:00,,0822.2,5.00,0.00,30.0,28.4,00.0,38.3,31.5,08.5,0000.0,0011.60,0003.36,0002.33
2023-04-12 20:26:00,,0822.2,4.99,0.00,30.0,28.5,00.0,38.3,31.5,08.5,0000.0,0011.03,0003.35,0002.32
2023-04-12 20:27:00,,0822.2,4.99,0.00,30.0,28.6,00.0,38.4,31.6,08.6,0000.0,0010.26,0003.39,0002.33
2023-04-12 20:28:00,,0822.1,5.00,0.00,30.1,28.7,00.0,38.4,31.6,08.7,0000.0,0009.22,0003.41,0002.33
2023-04-12 20:29:00,,0822.1,5.00,0.00,30.1,28.8,00.0,38.4,31.7,08.5,0000.0,0008.92,0003.44,0002.37
2023-04-12 20:30:00,,0822.1,5.01,0.00,30.1,28.8,00.0,38.4,31.8,08.5,0000.0,0008.32,0003.46,0002.40
2023-04-12 20:31:00,,0822.1,5.00,0.00,30.2,28.9,00.0,38.4,31.8,08.5,0000.0,0007.90,0003.42,0002.42
2023-04-12 20:32:00,,0822.1,4.99,0.00,30.2,28.8,00.0,38.5,31.8,08.5,0000.0,0009.37,0003.38,0002.44
2023-04-12 20:33:00,,0822.0,4.99,0.00,30.2,27.4,00.0,38.4,31.6,08.5,0000.0,0010.78,0003.41,0002.46
2023-04-12 20:34:00,,0822.0,5.00,0.00,30.1,25.9,00.0,38.3,31.3,08.6,0000.0,0010.35,0003.41,0002.47
2023-04-12 20:35:00,,0822.0,5.00,0.00,30.0,25.8,00.0,38.2,31.3,08.5,0000.0,0011.12,0003.40,0002.45
2023-04-12 20:36:00,,0821.9,5.01,0.00,29.9,26.1,00.0,38.2,31.1,08.6,0000.0,0011.19,0003.40,0002.46
2023-04-12 20:37:00,,0822.0,5.00,0.00,29.9,26.4,00.0,38.3,31.1,08.6,0000.0,0011.36,0003.43,0002.47
2023-04-12 20:38:00,,0821.9,5.00,0.00,29.8,26.8,00.0,38.2,31.2,08.9,0000.0,0011.70,0003.45,0002.48
2023-04-12 20:39:00,,0822.0,5.00,0.00,29.8,27.1,00.0,38.3,31.2,08.8,0000.0,0012.07,0003.45,0002.47
2023-04-12 20:40:00,,0822.0,5.00,0.00,29.8,27.4,00.0,38.3,31.2,08.3,0000.0,0014.00,0003.44,0002.44
2023-04-12 20:41:00,,0822.0,5.00,0.00,29.8,27.7,00.0,38.3,31.3,08.5,0000.0,0014.21,0003.44,0002.42
2023-04-12 20:42:00,,0822.0,5.00,0.00,29.8,27.9,00.0,38.3,31.3,08.5,0000.0,0014.34,0003.46,0002.43
2023-04-12 20:43:00,,0822.0,4.99,0.00,29.9,28.1,00.0,38.3,31.4,08.3,0000.0,0013.74,0003.54,0002.42
2023-04-12 20:44:00,,0821.9,5.00,0.00,29.9,28.2,00.0,38.3,31.4,08.3,0000.0,0012.09,0003.55,0002.43
2023-04-12 20:45:00,,0821.9,5.00,0.00,29.9,28.4,00.0,38.3,31.5,08.4,0000.0,0011.93,0003.53,0002.42
2023-04-12 20:46:00,,0821.9,5.00,0.00,30.0,28.5,00.0,38.3,31.5,08.3,0000.0,0010.99,0003.52,0002.40
2023-04-12 20:47:00,,0821.8,5.00,0.00,30.0,28.6,00.0,38.3,31.6,08.3,0000.0,0010.74,0003.49,0002.37
2023-04-12 20:48:00,,0821.8,5.00,0.00,30.0,28.7,00.0,38.3,31.6,08.3,0000.0,0010.51,0003.44,0002.37
2023-04-12 20:49:00,,0821.8,5.01,0.00,30.1,28.8,00.0,38.3,31.7,08.5,0000.0,0010.19,0003.43,0002.36
2023-04-12 20:50:00,,0821.8,4.99,0.00,30.1,28.8,00.0,38.4,31.7,08.4,0000.0,0010.07,0003.42,0002.37
2023-04-12 20:51:00,,0821.8,4.99,0.00,30.1,28.9,00.0,38.4,31.7,08.5,0000.0,0008.55,0003.40,0002.38
2023-04-12 20:52:00,,0821.8,5.00,0.00,30.2,28.9,00.0,38.4,31.8,08.4,0000.0,0009.28,0003.43,0002.39
2023-04-12 20:53:00,,0821.8,4.98,0.00,30.2,27.9,00.0,38.4,31.7,08.9,0000.0,0009.11,0003.41,0002.39
2023-04-12 20:54:00,,0821.7,5.01,0.00,30.1,26.2,00.0,38.3,31.4,08.8,0000.0,0008.84,0003.34,0002.38
2023-04-12 20:55:00,,0821.7,5.01,0.00,30.0,25.8,00.0,38.2,31.3,08.5,0000.0,0009.61,0003.34,0002.36
2023-04-12 20:56:00,,0821.7,5.01,0.00,29.9,26.0,00.0,38.2,31.2,08.7,0000.0,0010.62,0003.43,0002.37
2023-04-12 20:57:00,,0821.7,5.01,0.00,29.8,26.3,00.0,38.2,31.1,08.6,0000.0,0011.93,0003.49,0002.41
2023-04-12 20:58:00,,0821.6,5.00,0.00,29.8,26.7,00.0,38.2,31.1,08.7,0000.0,0012.98,0003.51,0002.42
2023-04-12 20:59:00,,0821.6,5.01,0.00,29.8,27.0,00.0,38.2,31.2,08.8,0000.0,0013.48,0003.52,0002.42
